Regional Weather Roundup
Issued by NWS New Orleans/Baton Rouge, LA

Home | Current Version | Previous Version | Graphics & Text | Print | Product List | Glossary Off
Versions: 1 2 3 4 5 6 7 8 9 10 11 12 13 14 15 16 17 18 19 20 21 22 23 24 25 26 27 28 29 30 31 32 33 34 35 36 37 38 39 40 41 42 43 44 45 46 47 48 49 50

847
ASUS44 KLIX 292210
RWRLIX
NEW ORLEANS REGIONAL WEATHER ROUNDUP
NATIONAL WEATHER SERVICE NEW ORLEANS LA
500 PM CDT FRI AUG 29 2014

NOTE: "FAIR" INDICATES FEW OR NO CLOUDS BELOW 12,000 FEET WITH NO
      SIGNIFICANT WEATHER AND/OR OBSTRUCTIONS TO VISIBILITY.
      SKY/WX - SKY CONDITION AND SIGNIFICANT WEATHER.
      TMP - AIR TEMPERATURE.     DP    - DEWPOINT TEMPERATURE.
      RH  - RELATIVE HUMIDITY.   PRES  - PRESSURE.
      HI  - HEAT INDEX.          WCI   - WIND CHILL INDEX.

*  THESE STATIONS ARE NOT NWS OR FAA STATIONS AND ARE NOT UNDER
   NWS QUALITY CONTROL.

LAZ038-040-048-061>063-065>067-069-292300-
SOUTHEAST LOUISIANA

CITY           SKY/WX    TMP DP  RH WIND       PRES   REMARKS
N.O. AUDUBON     N/A     78  75  91 MISG        N/A
N.O. INTL ARPT LGT RAIN  80  74  81 E7        29.96F
N.O. LAKEFRONT CLOUDY    79  75  87 SE7       29.97F
N.O. DOWNTOWN* MOCLDY    79  72  78 CALM      29.97S
SLIDELL        LGT RAIN  76  72  87 NE5       29.97S
BATON ROUGE    CLOUDY    80  74  81 SE8       29.95S
BOOTHVILLE     LGT RAIN  79  77  94 NE3       29.98R
BELLE CHASSE   CLOUDY    80  74  81 E8        29.95F
BOGALUSA*      MOCLDY    81  71  71 S7        29.99S
GALLIANO*      NOT AVBL
NEW ROADS*       N/A     81  76  82 SE7       29.94S
GONZALES*        N/A     79  78  96 E3        29.95S
HAMMOND*       CLOUDY    79  72  78 E7        29.98F
HOUMA*         NOT AVBL
PORT FOURCHON* PTCLDY    79  75  89 E7        29.99R

$$

MSZ070-080>082-292300-
SOUTHERN MISSISSIPPI

CITY           SKY/WX    TMP DP  RH WIND       PRES   REMARKS
MCCOMB         CLOUDY    86  72  62 S8        29.97S
GULFPORT       LGT RAIN  76  75  97 CALM      29.98R FOG
BILOXI         LGT RAIN  77  74  91 NE1       29.98S
PASCAGOULA     LGT RAIN  77  75  93 CALM      29.99R FOG
STENNIS ARPT*  LGT RAIN N/A N/A N/A CALM      29.98S

$$

COASTAL OBSERVATIONS
LAKE AND NEARSHORE STATIONS

STATION/POSITION TIME  TEMP    WIND        PRES    WAVE
                       AIR SEA DIR/SP/G            HT/PER
                 (UTC) (F)     (DEG/KT/KT) (MB)    (FT/S)
PASCAGOULA       2200   80     190/  6/  9 1015.1
WAVELAND YACHT   2200   77      CALM  /  3 1014.5
GRAND ISLE       2200   79 84   80/  6/  9 1015.4
SOUTHWEST PASS   2200   78 89   10/  5/  5 1015.3
NEW CANAL        2200   80 83  110/  2/  5 1015.1
SHELL BEACH      2200   78 81   60/  5/  8 1014.7

OFFSHORE STATIONS

STATION/POSITION TIME  TEMP    WIND        PRES    WAVE
                       AIR SEA DIR/SP/G            HT/PER
                 (UTC) (F)     (DEG/KT/KT) (MB)    (FT/S)
64 S DAUPHIN ISL 2054   83 85  160/  8/ 10 1015.5

$$




USA.gov is the U.S. government's official web portal to all federal, state and local government web resources and services.